ニート彗星

189P/NEAT (2012)

English version
Home page
Updated on December 16, 2012

---------------------------------------------------------------------

・ プロフィール

・ 写真集

・ 軌道要素

Epoch 2012 July 12.0 TT = JDT 2456120.5
T 2012 July 20.42827 TT                                 MPC
q   1.1772255            (2000.0)            P               Q
n   0.19755743     Peri.   15.35505     +0.44568153     +0.82796049
a   2.9197151      Node   282.15333     -0.85362797     +0.27856074
e   0.5968012      Incl.   20.37542     -0.26960575     +0.48670869
P   4.99
From 666 observations 2002 July 30-2012 June 25, mean residual 0".7.
     Nongravitational parameters A1 = -0.06, A2 = -0.0049.

・ 星図

・ 光度変化

        m1 = 17.0 + 5 logΔ + 17.5 log r(t - 35)

        ※ 緑色の曲線は、m1 = 18.5 + 5 logΔ + 10.0 log r の光度曲線です。

---------------------------------------------------------------------

軌道要素はM.P.E.C. 2012-N02に掲載されたものです。
星図はステラナビゲータ Ver.8 (アストロアーツ) で作成したものです。
光度グラフはComet for Windowsで作成したものです。

---------------------------------------------------------------------

Copyright(C) Seiichi Yoshida (comet@aerith.net). All rights reserved.